TimeCDT,TemperatureF,Dew PointF,Humidity,Sea Level PressureIn,VisibilityMPH,Wind Direction,Wind SpeedMPH,Gust SpeedMPH,PrecipitationIn,Events,Conditions,WindDirDegrees,DateUTC
12:12 AM,75.2,66.2,73,30.01,10.0,East,9.2,-,N/A,,Clear,100,2013-09-08 05:12:00
12:33 AM,73.4,64.4,73,30.01,10.0,ESE,10.4,17.3,N/A,,Clear,110,2013-09-08 05:33:00
12:52 AM,73.4,62.6,69,30.01,10.0,ESE,10.4,16.1,N/A,,Clear,120,2013-09-08 05:52:00
1:12 AM,71.6,60.8,69,30.01,10.0,ESE,11.5,17.3,N/A,,Clear,120,2013-09-08 06:12:00
1:33 AM,69.8,59.0,68,30.01,10.0,SE,12.7,20.7,N/A,,Clear,130,2013-09-08 06:33:00
1:52 AM,69.8,57.2,64,30.02,10.0,ESE,10.4,18.4,N/A,,Clear,120,2013-09-08 06:52:00
2:13 AM,69.8,57.2,64,30.02,10.0,ESE,9.2,-,N/A,,Clear,110,2013-09-08 07:13:00
2:33 AM,68.0,57.2,68,30.01,10.0,SE,11.5,17.3,N/A,,Clear,130,2013-09-08 07:33:00
2:52 AM,66.2,57.2,73,30.02,10.0,ESE,10.4,16.1,N/A,,Clear,110,2013-09-08 07:52:00
3:13 AM,66.2,57.2,73,30.01,10.0,ESE,6.9,-,N/A,,Clear,120,2013-09-08 08:13:00
3:32 AM,66.2,55.4,68,30.00,10.0,SE,9.2,16.1,N/A,,Clear,130,2013-09-08 08:32:00
3:52 AM,66.2,55.4,68,30.01,10.0,ESE,6.9,-,N/A,,Clear,120,2013-09-08 08:52:00
4:13 AM,66.2,55.4,68,30.02,10.0,ESE,8.1,-,N/A,,Clear,120,2013-09-08 09:13:00
4:32 AM,64.4,57.2,77,30.02,10.0,ESE,8.1,-,N/A,,Clear,120,2013-09-08 09:32:00
4:52 AM,64.4,57.2,77,30.03,10.0,ESE,5.8,-,N/A,,Scattered Clouds,110,2013-09-08 09:52:00
5:13 AM,64.4,57.2,77,30.03,10.0,ESE,4.6,-,N/A,,Overcast,120,2013-09-08 10:13:00
5:32 AM,64.4,57.2,77,30.02,10.0,ESE,5.8,-,N/A,,Overcast,120,2013-09-08 10:32:00
5:52 AM,64.4,57.2,77,30.02,10.0,ESE,4.6,-,N/A,,Scattered Clouds,120,2013-09-08 10:52:00
6:13 AM,64.4,57.2,77,30.03,10.0,Calm,Calm,-,N/A,,Mostly Cloudy,0,2013-09-08 11:13:00
6:32 AM,64.4,57.2,77,30.03,10.0,ESE,3.5,-,N/A,,Scattered Clouds,120,2013-09-08 11:32:00
6:53 AM,62.6,57.2,82,30.03,10.0,Calm,Calm,-,N/A,,Scattered Clouds,0,2013-09-08 11:53:00
7:13 AM,64.4,57.2,77,30.03,10.0,SE,4.6,-,N/A,,Scattered Clouds,140,2013-09-08 12:13:00
7:32 AM,64.4,57.2,77,30.03,10.0,SE,6.9,-,N/A,,Scattered Clouds,130,2013-09-08 12:32:00
7:53 AM,64.4,57.2,77,30.02,10.0,SE,8.1,-,N/A,,Scattered Clouds,140,2013-09-08 12:53:00
8:12 AM,64.4,57.2,77,30.02,10.0,SE,5.8,-,N/A,,Clear,130,2013-09-08 13:12:00
8:32 AM,64.4,57.2,77,30.02,10.0,SE,4.6,-,N/A,,Clear,130,2013-09-08 13:32:00
8:53 AM,64.4,57.2,77,30.02,10.0,ESE,5.8,-,N/A,,Mostly Cloudy,120,2013-09-08 13:53:00
9:12 AM,64.4,57.2,77,30.01,10.0,SE,5.8,-,N/A,,Overcast,130,2013-09-08 14:12:00
9:32 AM,64.4,57.2,77,30.01,10.0,ESE,8.1,-,N/A,,Overcast,110,2013-09-08 14:32:00
9:53 AM,64.4,57.2,77,30.05,10.0,ESE,3.5,-,N/A,,Overcast,110,2013-09-08 14:53:00
10:12 AM,64.4,57.2,77,30.05,10.0,East,3.5,-,N/A,Rain,Light Rain,90,2013-09-08 15:12:00
10:32 AM,64.4,57.2,77,30.05,10.0,East,5.8,-,N/A,,Overcast,100,2013-09-08 15:32:00
10:53 AM,64.4,59.0,83,30.03,10.0,SE,8.1,-,N/A,Rain,Light Rain,130,2013-09-08 15:53:00
11:12 AM,64.4,60.8,88,30.03,7.0,SE,4.6,-,N/A,Rain,Light Rain,140,2013-09-08 16:12:00
11:33 AM,64.4,60.8,88,30.03,10.0,ESE,3.5,-,0.01,Rain,Light Rain,120,2013-09-08 16:33:00
11:53 AM,64.4,60.8,88,30.00,10.0,SE,9.2,-,0.01,Rain,Light Rain,130,2013-09-08 16:53:00
12:12 PM,64.4,60.8,88,30.01,10.0,SSE,9.2,-,N/A,,Overcast,150,2013-09-08 17:12:00
12:33 PM,66.2,60.8,83,30.00,10.0,SE,6.9,-,N/A,,Overcast,140,2013-09-08 17:33:00
12:52 PM,64.4,60.8,88,29.99,7.0,South,8.1,-,N/A,Rain,Light Rain,170,2013-09-08 17:52:00
1:12 PM,66.2,62.6,88,29.99,10.0,ESE,5.8,-,N/A,,Overcast,110,2013-09-08 18:12:00
1:33 PM,66.2,62.6,88,29.98,10.0,SE,5.8,-,N/A,,Overcast,130,2013-09-08 18:33:00
1:52 PM,68.0,62.6,83,29.98,10.0,SE,5.8,-,N/A,,Overcast,140,2013-09-08 18:52:00
2:12 PM,69.8,64.4,83,29.96,10.0,ESE,4.6,-,N/A,,Overcast,120,2013-09-08 19:12:00
2:33 PM,69.8,64.4,83,29.96,10.0,SE,6.9,-,N/A,,Overcast,130,2013-09-08 19:33:00
2:52 PM,69.8,64.4,83,29.95,10.0,ESE,6.9,-,N/A,,Overcast,120,2013-09-08 19:52:00
3:12 PM,69.8,64.4,83,29.94,10.0,ESE,6.9,-,N/A,,Overcast,110,2013-09-08 20:12:00
3:33 PM,68.0,64.4,88,29.94,10.0,East,8.1,-,N/A,,Overcast,90,2013-09-08 20:33:00
3:52 PM,68.0,64.4,88,29.93,10.0,ESE,8.1,-,N/A,,Overcast,110,2013-09-08 20:52:00
4:12 PM,68.0,62.6,83,29.93,10.0,ESE,8.1,-,N/A,,Overcast,110,2013-09-08 21:12:00
4:32 PM,68.0,64.4,88,29.93,10.0,ESE,6.9,-,N/A,,Overcast,120,2013-09-08 21:32:00
4:52 PM,68.0,64.4,88,29.93,10.0,ESE,8.1,-,N/A,,Overcast,110,2013-09-08 21:52:00
5:13 PM,68.0,64.4,88,29.92,10.0,ESE,8.1,-,N/A,,Overcast,110,2013-09-08 22:13:00
5:32 PM,68.0,62.6,83,29.92,10.0,ESE,8.1,-,N/A,,Overcast,110,2013-09-08 22:32:00
5:52 PM,68.0,62.6,83,29.92,10.0,ESE,8.1,-,N/A,,Overcast,110,2013-09-08 22:52:00
6:13 PM,68.0,62.6,83,29.91,10.0,ESE,9.2,-,N/A,,Overcast,120,2013-09-08 23:13:00
6:32 PM,66.2,62.6,88,29.91,10.0,ESE,9.2,-,N/A,,Overcast,110,2013-09-08 23:32:00
6:52 PM,64.4,62.6,94,29.90,10.0,ESE,9.2,-,N/A,,Overcast,120,2013-09-08 23:52:00
7:13 PM,64.4,60.8,88,29.90,7.0,ESE,5.8,-,N/A,,Overcast,120,2013-09-09 00:13:00
7:32 PM,64.4,60.8,88,29.90,7.0,ESE,8.1,-,N/A,,Overcast,120,2013-09-09 00:32:00
7:52 PM,64.4,60.8,88,29.90,10.0,SE,6.9,-,N/A,,Overcast,130,2013-09-09 00:52:00
8:13 PM,64.4,62.6,94,29.89,10.0,SE,6.9,-,N/A,,Overcast,130,2013-09-09 01:13:00
8:32 PM,64.4,62.6,94,29.89,7.0,SE,6.9,-,N/A,,Overcast,140,2013-09-09 01:32:00
8:52 PM,66.2,62.6,88,29.89,10.0,SE,6.9,-,N/A,,Overcast,130,2013-09-09 01:52:00
9:13 PM,66.2,62.6,88,29.89,10.0,SE,6.9,-,N/A,,Overcast,130,2013-09-09 02:13:00
9:32 PM,66.2,62.6,88,29.88,10.0,SE,3.5,-,N/A,,Overcast,130,2013-09-09 02:32:00
9:53 PM,66.2,60.8,83,29.88,10.0,SE,5.8,-,N/A,,Overcast,130,2013-09-09 02:53:00
10:12 PM,66.2,60.8,83,29.88,10.0,SE,5.8,-,N/A,,Overcast,130,2013-09-09 03:12:00
10:32 PM,66.2,60.8,83,29.87,10.0,SE,5.8,-,N/A,,Overcast,140,2013-09-09 03:32:00
10:53 PM,66.2,60.8,83,29.87,10.0,SE,8.1,-,N/A,,Overcast,140,2013-09-09 03:53:00
11:12 PM,66.2,60.8,83,29.86,10.0,SE,9.2,-,N/A,,Overcast,140,2013-09-09 04:12:00
11:32 PM,66.2,60.8,83,29.86,10.0,SE,6.9,-,N/A,,Overcast,140,2013-09-09 04:32:00
11:53 PM,66.2,60.8,83,29.86,10.0,SE,6.9,-,N/A,,Overcast,140,2013-09-09 04:53:00